Time,TemperatureF,DewpointF,PressureIn,WindDirection,WindDirectionDegrees,WindSpeedMPH,WindSpeedGustMPH,Humidity,HourlyPrecipIn,Conditions,Clouds,dailyrainin,SoftwareType,DateUTC
2013-01-03 00:03:00,31.3,30.8,30.06,North,0,0.0,-999.0,98,-99.99,,,0.00,Acu-Link.com,2013-01-03 08:03:00,
2013-01-03 00:18:00,31.3,30.8,30.05,East,90,1.7,-999.0,98,-99.99,,,0.00,Acu-Link.com,2013-01-03 08:18:00,
2013-01-03 00:34:00,31.1,30.6,30.05,WNW,292,0.0,-999.0,98,-99.99,,,0.00,Acu-Link.com,2013-01-03 08:34:00,
2013-01-03 00:49:00,30.4,29.9,30.05,SW,225,0.0,-999.0,98,-99.99,,,0.00,Acu-Link.com,2013-01-03 08:49:00,
2013-01-03 01:09:00,29.8,29.3,30.04,ESE,112,1.1,-999.0,98,-99.99,,,0.00,Acu-Link.com,2013-01-03 09:09:00,
2013-01-03 01:24:00,30.0,29.5,30.03,SSW,202,0.0,-999.0,98,-99.99,,,0.00,Acu-Link.com,2013-01-03 09:24:00,
2013-01-03 01:40:00,29.5,29.0,30.03,ENE,67,0.0,-999.0,98,-99.99,,,0.00,Acu-Link.com,2013-01-03 09:40:00,
2013-01-03 01:55:00,29.8,29.3,30.03,East,90,1.1,-999.0,98,-99.99,,,0.00,Acu-Link.com,2013-01-03 09:55:00,
2013-01-03 02:10:00,29.7,29.2,30.03,ESE,112,2.2,-999.0,98,-99.99,,,0.00,Acu-Link.com,2013-01-03 10:10:00,
2013-01-03 02:25:00,29.5,29.0,30.03,SSW,202,0.0,-999.0,98,-99.99,,,0.00,Acu-Link.com,2013-01-03 10:25:00,
2013-01-03 02:40:00,28.8,28.3,30.03,ESE,112,1.7,-999.0,98,-99.99,,,0.00,Acu-Link.com,2013-01-03 10:40:00,
2013-01-03 02:56:00,28.9,28.4,30.04,NE,45,2.2,-999.0,98,-99.99,,,0.00,Acu-Link.com,2013-01-03 10:56:00,
2013-01-03 03:11:00,29.5,29.0,30.05,NE,45,2.2,-999.0,98,-99.99,,,0.00,Acu-Link.com,2013-01-03 11:11:00,
2013-01-03 03:26:00,29.5,29.0,30.03,ESE,112,2.2,-999.0,98,-99.99,,,0.00,Acu-Link.com,2013-01-03 11:26:00,
2013-01-03 03:41:00,29.3,28.8,30.03,SSE,157,0.0,-999.0,98,-99.99,,,0.00,Acu-Link.com,2013-01-03 11:41:00,
2013-01-03 03:57:00,28.9,28.4,30.03,ESE,112,0.0,-999.0,98,-99.99,,,0.00,Acu-Link.com,2013-01-03 11:57:00,
2013-01-03 04:12:00,29.1,28.6,30.04,ESE,112,0.0,-999.0,98,-99.99,,,0.00,Acu-Link.com,2013-01-03 12:12:00,
2013-01-03 04:27:00,29.1,28.6,30.02,SSE,157,0.0,-999.0,98,-99.99,,,0.00,Acu-Link.com,2013-01-03 12:27:00,
2013-01-03 04:43:00,28.9,28.4,30.01,SSE,157,0.0,-999.0,98,-99.99,,,0.00,Acu-Link.com,2013-01-03 12:43:00,
2013-01-03 04:58:00,28.8,28.3,30.02,ENE,67,0.0,-999.0,98,-99.99,,,0.00,Acu-Link.com,2013-01-03 12:58:00,
2013-01-03 05:13:00,28.9,28.4,30.02,ESE,112,0.0,-999.0,98,-99.99,,,0.00,Acu-Link.com,2013-01-03 13:13:00,
2013-01-03 05:28:00,29.3,28.8,30.02,ESE,112,1.1,-999.0,98,-99.99,,,0.00,Acu-Link.com,2013-01-03 13:28:00,
2013-01-03 05:44:00,29.7,29.2,30.02,ESE,112,0.0,-999.0,98,-99.99,,,0.00,Acu-Link.com,2013-01-03 13:44:00,
2013-01-03 05:59:00,30.0,29.5,30.01,NE,45,0.0,-999.0,98,-99.99,,,0.00,Acu-Link.com,2013-01-03 13:59:00,
2013-01-03 06:15:00,30.4,29.9,30.01,WSW,247,0.0,-999.0,98,-99.99,,,0.00,Acu-Link.com,2013-01-03 14:15:00,
2013-01-03 06:30:00,30.6,30.1,30.01,ENE,67,0.0,-999.0,98,-99.99,,,0.00,Acu-Link.com,2013-01-03 14:30:00,
2013-01-03 06:45:00,31.1,30.6,30.01,West,270,0.0,-999.0,98,-99.99,,,0.00,Acu-Link.com,2013-01-03 14:45:00,
2013-01-03 07:01:00,31.1,30.6,30.02,ESE,112,0.0,-999.0,98,-99.99,,,0.00,Acu-Link.com,2013-01-03 15:01:00,
2013-01-03 07:16:00,31.3,30.8,30.01,NNW,337,0.0,-999.0,98,-99.99,,,0.00,Acu-Link.com,2013-01-03 15:16:00,
2013-01-03 07:31:00,31.5,31.0,30.01,South,180,0.0,-999.0,98,-99.99,,,0.00,Acu-Link.com,2013-01-03 15:31:00,
2013-01-03 07:46:00,31.6,31.1,30.01,East,90,0.0,-999.0,98,-99.99,,,0.00,Acu-Link.com,2013-01-03 15:46:00,
2013-01-03 08:02:00,31.8,31.3,30.01,West,270,0.0,-999.0,98,-99.99,,,0.00,Acu-Link.com,2013-01-03 16:02:00,
2013-01-03 08:17:00,32.0,31.5,30.01,SSW,202,0.0,-999.0,98,-99.99,,,0.00,Acu-Link.com,2013-01-03 16:17:00,
2013-01-03 08:32:00,32.0,31.5,30.02,SE,135,0.0,-999.0,98,-99.99,,,0.00,Acu-Link.com,2013-01-03 16:32:00,
2013-01-03 08:48:00,32.2,31.7,30.02,WNW,292,0.0,-999.0,98,-99.99,,,0.00,Acu-Link.com,2013-01-03 16:48:00,
2013-01-03 09:03:00,32.9,32.4,30.03,West,270,0.0,-999.0,98,-99.99,,,0.00,Acu-Link.com,2013-01-03 17:03:00,
2013-01-03 09:18:00,33.4,32.9,30.04,ENE,67,1.1,-999.0,98,-99.99,,,0.01,Acu-Link.com,2013-01-03 17:18:00,
2013-01-03 09:34:00,34.2,33.7,30.04,East,90,0.0,-999.0,98,-99.99,,,0.01,Acu-Link.com,2013-01-03 17:34:00,
2013-01-03 09:49:00,35.4,34.9,30.06,NW,315,2.2,-999.0,98,-99.99,,,0.01,Acu-Link.com,2013-01-03 17:49:00,
2013-01-03 10:04:00,35.8,35.3,30.06,WSW,247,0.0,-999.0,98,-99.99,,,0.01,Acu-Link.com,2013-01-03 18:04:00,
2013-01-03 10:19:00,36.9,36.4,30.07,SSW,202,0.0,-999.0,98,-99.99,,,0.01,Acu-Link.com,2013-01-03 18:19:00,
2013-01-03 10:35:00,37.8,37.3,30.07,SW,225,1.7,-999.0,98,-99.99,,,0.01,Acu-Link.com,2013-01-03 18:35:00,
2013-01-03 10:50:00,38.8,38.3,30.06,SW,225,2.7,-999.0,98,-99.99,,,0.01,Acu-Link.com,2013-01-03 18:50:00,
2013-01-03 11:05:00,39.2,38.7,30.07,SSW,202,0.0,-999.0,98,-99.99,,,0.01,Acu-Link.com,2013-01-03 19:05:00,
2013-01-03 12:07:00,47.1,46.6,30.04,WSW,247,1.7,-999.0,98,-99.99,,,0.01,Acu-Link.com,2013-01-03 20:07:00,
2013-01-03 12:22:00,49.1,48.6,30.04,NNW,337,1.7,-999.0,98,-99.99,,,0.01,Acu-Link.com,2013-01-03 20:22:00,
2013-01-03 12:37:00,52.3,51.8,30.03,East,90,0.0,-999.0,98,-99.99,,,0.01,Acu-Link.com,2013-01-03 20:37:00,
2013-01-03 12:52:00,54.7,54.1,30.03,WSW,247,4.7,-999.0,98,-99.99,,,0.01,Acu-Link.com,2013-01-03 20:52:00,
2013-01-03 13:08:00,54.5,51.3,30.04,WNW,292,4.2,-999.0,89,-99.99,,,0.01,Acu-Link.com,2013-01-03 21:08:00,
2013-01-03 13:23:00,53.6,53.0,30.03,South,180,1.7,-999.0,98,-99.99,,,0.01,Acu-Link.com,2013-01-03 21:23:00,
2013-01-03 13:38:00,53.6,51.6,30.03,SW,225,3.2,-999.0,93,-99.99,,,0.01,Acu-Link.com,2013-01-03 21:38:00,
2013-01-03 13:53:00,54.3,51.4,30.04,ESE,112,2.2,-999.0,90,-99.99,,,0.01,Acu-Link.com,2013-01-03 21:53:00,
2013-01-03 14:09:00,54.3,52.0,30.04,NNE,22,0.0,-999.0,92,-99.99,,,0.01,Acu-Link.com,2013-01-03 22:09:00,
2013-01-03 14:24:00,54.5,51.3,30.04,ESE,112,1.7,-999.0,89,-99.99,,,0.01,Acu-Link.com,2013-01-03 22:24:00,
2013-01-03 14:39:00,54.0,50.8,30.05,NW,315,2.2,-999.0,89,-99.99,,,0.01,Acu-Link.com,2013-01-03 22:39:00,
2013-01-03 14:55:00,53.6,51.9,30.05,NNE,22,3.2,-999.0,94,-99.99,,,0.01,Acu-Link.com,2013-01-03 22:55:00,
2013-01-03 15:10:00,54.0,51.4,30.06,SW,225,6.3,-999.0,91,-99.99,,,0.01,Acu-Link.com,2013-01-03 23:10:00,
2013-01-03 15:25:00,54.0,51.4,30.07,ESE,112,6.8,-999.0,91,-99.99,,,0.01,Acu-Link.com,2013-01-03 23:25:00,
2013-01-03 15:41:00,53.6,50.7,30.07,SW,225,3.7,-999.0,90,-99.99,,,0.01,Acu-Link.com,2013-01-03 23:41:00,
2013-01-03 15:56:00,52.5,52.0,30.08,South,180,4.2,-999.0,98,-99.99,,,0.01,Acu-Link.com,2013-01-03 23:56:00,
2013-01-03 16:11:00,52.7,51.9,30.09,SSW,202,5.8,-999.0,97,-99.99,,,0.01,Acu-Link.com,2013-01-04 00:11:00,
2013-01-03 16:42:00,51.4,50.9,30.09,West,270,2.2,-999.0,98,-99.99,,,0.01,Acu-Link.com,2013-01-04 00:42:00,
2013-01-03 16:57:00,51.3,50.8,30.09,WSW,247,2.7,-999.0,98,-99.99,,,0.01,Acu-Link.com,2013-01-04 00:57:00,
2013-01-03 17:12:00,50.9,50.4,30.10,South,180,1.1,-999.0,98,-99.99,,,0.01,Acu-Link.com,2013-01-04 01:12:00,
2013-01-03 17:28:00,50.4,49.9,30.11,SSE,157,0.0,-999.0,98,-99.99,,,0.01,Acu-Link.com,2013-01-04 01:28:00,
2013-01-03 17:43:00,50.0,49.5,30.12,East,90,2.2,-999.0,98,-99.99,,,0.01,Acu-Link.com,2013-01-04 01:43:00,
2013-01-03 17:58:00,49.8,49.3,30.12,SW,225,0.0,-999.0,98,-99.99,,,0.01,Acu-Link.com,2013-01-04 01:58:00,
2013-01-03 18:14:00,49.6,49.1,30.13,NNE,22,0.0,-999.0,98,-99.99,,,0.01,Acu-Link.com,2013-01-04 02:14:00,
2013-01-03 18:29:00,49.6,49.1,30.13,SSE,157,0.0,-999.0,98,-99.99,,,0.01,Acu-Link.com,2013-01-04 02:29:00,
2013-01-03 18:44:00,49.8,49.3,30.14,SSE,157,1.7,-999.0,98,-99.99,,,0.01,Acu-Link.com,2013-01-04 02:44:00,
2013-01-03 18:59:00,49.6,49.1,30.15,NE,45,0.0,-999.0,98,-99.99,,,0.01,Acu-Link.com,2013-01-04 02:59:00,
2013-01-03 19:15:00,49.3,48.8,30.16,ESE,112,0.0,-999.0,98,-99.99,,,0.01,Acu-Link.com,2013-01-04 03:15:00,
2013-01-03 19:30:00,49.1,48.6,30.16,ESE,112,0.0,-999.0,98,-99.99,,,0.01,Acu-Link.com,2013-01-04 03:30:00,
2013-01-03 19:45:00,48.9,48.4,30.16,West,270,0.0,-999.0,98,-99.99,,,0.01,Acu-Link.com,2013-01-04 03:45:00,
2013-01-03 20:01:00,48.6,48.1,30.16,NE,45,0.0,-999.0,98,-99.99,,,0.01,Acu-Link.com,2013-01-04 04:01:00,
2013-01-03 20:16:00,48.4,47.9,30.18,NNE,22,0.0,-999.0,98,-99.99,,,0.01,Acu-Link.com,2013-01-04 04:16:00,
2013-01-03 20:31:00,48.2,47.7,30.18,ENE,67,0.0,-999.0,98,-99.99,,,0.01,Acu-Link.com,2013-01-04 04:31:00,
2013-01-03 20:47:00,48.0,47.5,30.19,ESE,112,0.0,-999.0,98,-99.99,,,0.02,Acu-Link.com,2013-01-04 04:47:00,
2013-01-03 21:02:00,47.7,47.2,30.19,SE,135,0.0,-999.0,98,-99.99,,,0.03,Acu-Link.com,2013-01-04 05:02:00,
2013-01-03 21:17:00,47.7,47.2,30.20,WNW,292,0.0,-999.0,98,-99.99,,,0.03,Acu-Link.com,2013-01-04 05:17:00,
2013-01-03 21:32:00,47.7,47.2,30.20,ESE,112,0.0,-999.0,98,-99.99,,,0.06,Acu-Link.com,2013-01-04 05:32:00,
2013-01-03 21:48:00,47.7,47.2,30.19,East,90,0.0,-999.0,98,-99.99,,,0.08,Acu-Link.com,2013-01-04 05:48:00,
2013-01-03 22:03:00,47.7,47.2,30.20,East,90,0.0,-999.0,98,-99.99,,,0.10,Acu-Link.com,2013-01-04 06:03:00,
2013-01-03 22:18:00,47.7,47.2,30.20,ESE,112,0.0,-999.0,98,-99.99,,,0.12,Acu-Link.com,2013-01-04 06:18:00,
2013-01-03 22:34:00,47.8,47.3,30.22,WSW,247,0.0,-999.0,98,-99.99,,,0.13,Acu-Link.com,2013-01-04 06:34:00,
2013-01-03 22:49:00,47.8,47.3,30.22,West,270,0.0,-999.0,98,-99.99,,,0.13,Acu-Link.com,2013-01-04 06:49:00,
2013-01-03 23:04:00,47.8,47.3,30.22,ESE,112,0.0,-999.0,98,-99.99,,,0.15,Acu-Link.com,2013-01-04 07:04:00,
2013-01-03 23:20:00,47.8,47.3,30.23,SSW,202,0.0,-999.0,98,-99.99,,,0.16,Acu-Link.com,2013-01-04 07:20:00,
2013-01-03 23:35:00,47.8,47.3,30.24,SW,225,0.0,-999.0,98,-99.99,,,0.17,Acu-Link.com,2013-01-04 07:35:00,
2013-01-03 23:50:00,47.7,47.2,30.24,West,270,2.7,-999.0,98,-99.99,,,0.19,Acu-Link.com,2013-01-04 07:50:00,